Home > Weather > Barnstable > Past weeks

Flag for USA Past Weather in Barnstable, Massachusetts, USA — Yesterday and Last 2 Weeks

Now
51 °F

Clear.


Feels Like: 51 °F
Forecast: 55 / 76 °F
Wind: No wind

Location: Barnstable Municipal-Boardman Airport

Current Time: Jun 26, 2016 at 6:16:24 AM

Latest Report: Jun 26, 2016 at 4:56 AM


Visibility: 10 mi

Pressure: 30.23 "Hg

Humidity: 86%

Dew Point: 47 °F

Location of BarnstableLocation

Past Weather in Barnstable — Graph

°F

Barnstable Temperature Yesterday

Maximum temperature yesterday: 76 °F (at 2:56 PM)
Minimum temperature yesterday: 51 °F (at 11:56 PM)
Average temperature yesterday: 64 °F

High & Low Weather Summary for the Past Weeks

 TemperatureHumidityPressure
High83 °F (Jun 12, 12:56 PM)97% (Jun 12, 3:56 AM)30.35 "Hg (Jun 12, 3:56 AM)
Low50 °F (Jun 26, 1:56 AM)30% (Jun 12, 12:56 PM)29.45 "Hg (Jun 12, 12:56 PM)
Average66 °F66%29.92 "Hg
* Reported Jun 11 4:56 AM — Jun 26 4:56 AM, Barnstable, Weather by CustomWeather, © 2016

Note: Actual official high and low records may vary slightly from our data, if they occured in-between our weather recording intervals... More about our weather records

Advertising

Barnstable Weather History for the Previous 24 Hours

Scroll right to see more
 ConditionsComfort  
Time TempWeatherWind HumidityBarometerVisibility
4:56 AM
Sun, Jun 26
51 °FClear.No wind86%30.23 "Hg10 mi
3:56 AM51 °FClear.No wind86%30.22 "Hg10 mi
2:56 AM50 °FClear.No wind86%30.20 "Hg10 mi
1:56 AM50 °FClear.No wind86%30.20 "Hg10 mi
12:56 AM51 °FClear.No wind86%30.20 "Hg10 mi
11:56 PM
Sat, Jun 25
51 °FClear.No wind86%30.20 "Hg10 mi
10:56 PM53 °FClear.No wind83%30.21 "Hg10 mi
9:56 PM56 °FClear.No wind75%30.22 "Hg10 mi
8:56 PM58 °FSunny.No wind70%30.21 "Hg10 mi
7:56 PM63 °FSunny.3 mph60%30.19 "Hg10 mi
6:56 PM66 °FSunny.7 mph56%30.19 "Hg10 mi
5:56 PM69 °FSunny.8 mph55%30.19 "Hg10 mi
4:56 PM71 °FSunny.8 mph49%30.18 "Hg10 mi
3:56 PM72 °FSunny.7 mph48%30.17 "Hg10 mi
2:56 PM76 °FSunny.9 mph37%30.19 "Hg10 mi
1:56 PM75 °FSunny.7 mph42%30.19 "Hg10 mi
12:56 PM75 °FSunny.5 mph40%30.19 "Hg10 mi
11:56 AM74 °FSunny.No wind41%30.20 "Hg10 mi
10:56 AM74 °FSunny.5 mph35%30.20 "Hg10 mi
9:56 AM73 °FSunny.9 mph41%30.20 "Hg10 mi
8:56 AM71 °FSunny.7 mph47%30.20 "Hg10 mi
7:56 AM67 °FSunny.3 mph66%30.20 "Hg10 mi
6:56 AM62 °FSunny.3 mph83%30.18 "Hg10 mi
Weather by CustomWeather, © 2016

See weather overviewHow to use our weather pages